Tracking 21970 objects as of 25-Nov-2020
HD Live streaming from Space Station
objects crossing your sky now

IRIDIUM 33 DEB

Track IRIDIUM 33 DEB now!
10-day predictions


NORAD ID: 34511
Int'l Code: 1997-051HC
Perigee: 713.5 km
Apogee: 754.7 km
Inclination: 86.4 °
Period: 99.3 minutes
Semi major axis: 7105 km
RCS: 0.037 m2 (small)
Launch date: September 14, 1997
Source: United States (US)
Launch site: TYURATAM MISSILE AND SPACE COMPLEX (TTMTR)

Note: This is SATELLITE DEBRIS
aabbcc
Your satellite tracking list
Your tracking list is empty




NASA's NSSDC Master Catalog

Two Line Element Set (TLE):
1 34511U 97051HC  20329.60976587 +.00001970 +00000-0 +50553-3 0  9998
2 34511 086.3873 106.8826 0029030 337.8505 153.1003 14.49595997617411
Source of the keplerian elements: AFSPC